This demonstration page uses our WeatherBlox Daily Observations layout. Learn more.

Left ArrowRight Arrow

Hourly Observations for May 2, 2021

Temp ( °F °C ) Dew Point ( °F °C ) Humidity (%) Winds ( mph kmh ) Pressure ( in mb ) Visibility ( mi km ) Precip ( " mm )
12:53 am 00:53 Cloudy 50 10 36 2.2 59 59 NNW 13 20 29.76 1008 10 16 0.00 0.00
1:53 am 01:53 Mostly Cloudy 48 8.9 37 2.8 66 66 NNW 7 11 29.79 1009 10 16 0.00 0.00
2:53 am 02:53 Cloudy 47 8.3 38 3.3 71 71 NNW 17 28 29.81 1010 10 16 0.00 0.00
3:53 am 03:53 Cloudy 44 6.7 40 4.4 85 85 NNW 12 19 29.84 1011 9 14 0.00 0.00
4:53 am 04:53 Cloudy with Light Rain 44 6.7 40 4.4 85 85 Calm 29.86 1011 10 16 0.05 1.27
5:53 am 05:53 Cloudy with Light Rain 44 6.7 40 4.4 85 85 NW 9 15 29.88 1012 10 16 0.02 0.51
6:53 am 06:53 Cloudy 44 6.7 40 4.4 85 85 WNW 9 15 29.90 1012 10 16 0.02 0.51
7:53 am 07:53 Cloudy 44 6.7 39 3.9 83 83 W 13 20 29.92 1013 10 16 0.00 0.00
8:53 am 08:53 Cloudy 45 7.2 38 3.3 77 77 NW 9 15 29.94 1014 10 16 0.00 0.00
9:53 am 09:53 Cloudy 47 8.3 38 3.3 71 71 NNW 12 19 29.96 1015 10 16 0.00 0.00
10:53 am 10:53 Cloudy 50 10 37 2.8 61 61 N 14 22 29.97 1015 10 16 0.00 0.00
11:53 am 11:53 Mostly Cloudy 52 11.1 35 1.7 53 53 NW 17 28 29.98 1015 10 16 0.00 0.00
12:53 pm 12:53 Mostly Cloudy 54 12.2 34 1.1 47 47 NNW 15 24 29.99 1016 10 16 0.00 0.00
1:53 pm 13:53 Mostly Cloudy 56 13.3 31 -0.6 39 39 NNE 17 28 29.99 1016 10 16 0.00 0.00
2:53 pm 14:53 Mostly Cloudy 56 13.3 30 -1.1 37 37 NNW 12 19 30.00 1016 10 16 0.00 0.00
3:53 pm 15:53 Cloudy 57 13.9 29 -1.7 34 34 N 16 26 30.00 1016 10 16 0.00 0.00
4:53 pm 16:53 Partly Cloudy 56 13.3 32 0 40 40 NNW 18 30 30.02 1017 10 16 0.00 0.00
5:53 pm 17:53 Mostly Sunny 53 11.7 29 -1.7 40 40 NNW 13 20 30.04 1017 10 16 0.00 0.00
6:53 pm 18:53 Mostly Sunny 54 12.2 32 0 43 43 N 13 20 30.05 1018 10 16 0.00 0.00
7:53 pm 19:53 Sunny 50 10 31 -0.6 48 48 NNE 6 9 30.06 1018 10 16 0.00 0.00
8:53 pm 20:53 Clear 47 8.3 32 0 56 56 NE 5 7 30.09 1019 10 16 0.00 0.00
9:53 pm 21:53 Clear 45 7.2 31 -0.6 58 58 NE 3 6 30.10 1019 10 16 0.00 0.00
10:53 pm 22:53 Mostly Clear 42 5.6 31 -0.6 65 65 Calm 30.11 1020 10 16 0.00 0.00
11:53 pm 23:53 Mostly Clear 36 2.2 30 -1.1 79 79 SW 7 11 30.13 1020 10 16 0.00 0.00

Powered by AerisWeather